Location: Tryon
(41.5533°N, 100.9574°W)
Time: 01:16:00
(UTC-05:00)

Tiangong 2 - Pass Details

Date: 21 March 2019
Orbit: 378 x 389 km, 42.8° (Epoch: 20 April)

Event Time Altitude Azimuth Distance (km) Brightness Sun altitude
Exits shadow 05:16:54 14° 93° (E) 1,186 4.2 -27.6°
Drops below altitude 10° 05:17:26 10° 94° (E) 1,397 4.6 -27.6°
Sets 05:19:30 0° 96° (E) 2,252 5.8 -27.2°
